TimeCST,TemperatureF,Dew PointF,Humidity,Sea Level PressureIn,VisibilityMPH,Wind Direction,Wind SpeedMPH,Gust SpeedMPH,PrecipitationIn,Events,Conditions,WindDirDegrees,DateUTC
12:41 AM,21.0,16.0,81,30.24,10.0,SSW,3.5,-,N/A,,Mostly Cloudy,200,2014-02-03 06:41:00
12:53 AM,21.0,16.0,81,30.30,10.0,South,3.5,-,N/A,,Overcast,170,2014-02-03 06:53:00
1:53 AM,19.9,15.1,81,30.28,10.0,SW,3.5,-,N/A,,Mostly Cloudy,220,2014-02-03 07:53:00
2:04 AM,19.9,15.1,81,30.22,10.0,Calm,Calm,-,N/A,,Scattered Clouds,0,2014-02-03 08:04:00
2:53 AM,18.0,14.0,84,30.29,10.0,SSW,5.8,-,N/A,,Clear,200,2014-02-03 08:53:00
3:17 AM,19.9,15.1,81,30.21,10.0,South,4.6,-,N/A,,Mostly Cloudy,190,2014-02-03 09:17:00
3:53 AM,21.0,17.1,85,30.24,10.0,SE,3.5,-,N/A,,Overcast,130,2014-02-03 09:53:00
4:53 AM,24.1,17.1,75,30.22,10.0,Calm,Calm,-,N/A,,Overcast,0,2014-02-03 10:53:00
5:07 AM,24.1,18.0,77,30.18,10.0,South,3.5,-,N/A,,Overcast,170,2014-02-03 11:07:00
5:45 AM,24.1,18.0,77,30.17,10.0,South,3.5,-,N/A,,Overcast,190,2014-02-03 11:45:00
5:53 AM,24.1,18.0,77,30.22,10.0,South,3.5,-,N/A,,Overcast,190,2014-02-03 11:53:00
6:53 AM,24.1,18.0,77,30.24,10.0,SSW,4.6,-,N/A,,Overcast,200,2014-02-03 12:53:00
7:31 AM,24.1,19.0,81,30.21,10.0,SW,6.9,-,N/A,,Overcast,230,2014-02-03 13:31:00
7:53 AM,24.1,19.9,84,30.27,10.0,SW,8.1,-,N/A,,Overcast,220,2014-02-03 13:53:00
8:53 AM,25.0,19.9,81,30.29,10.0,SW,6.9,-,N/A,,Overcast,230,2014-02-03 14:53:00
9:53 AM,25.0,21.0,85,30.27,10.0,SW,10.4,-,N/A,,Overcast,220,2014-02-03 15:53:00
10:53 AM,28.0,23.0,81,30.25,10.0,South,10.4,-,N/A,,Overcast,170,2014-02-03 16:53:00
11:04 AM,28.0,21.9,78,30.20,10.0,South,9.2,-,N/A,,Overcast,180,2014-02-03 17:04:00
11:53 AM,28.0,23.0,81,30.22,10.0,SSW,8.1,-,N/A,,Overcast,200,2014-02-03 17:53:00
12:53 PM,28.9,23.0,78,30.18,10.0,South,10.4,-,N/A,,Overcast,170,2014-02-03 18:53:00
1:53 PM,30.0,24.1,79,30.15,10.0,South,11.5,-,N/A,,Overcast,170,2014-02-03 19:53:00
2:53 PM,28.9,24.1,82,30.13,10.0,South,12.7,-,N/A,,Overcast,170,2014-02-03 20:53:00
3:06 PM,28.9,24.1,82,30.06,10.0,SSE,10.4,-,N/A,,Overcast,160,2014-02-03 21:06:00
3:53 PM,28.9,24.1,82,30.08,10.0,SSE,8.1,-,N/A,,Overcast,160,2014-02-03 21:53:00
4:53 PM,30.0,25.0,82,30.06,10.0,SSE,10.4,-,N/A,,Overcast,150,2014-02-03 22:53:00
5:53 PM,28.9,25.0,85,30.05,10.0,SSE,9.2,-,N/A,,Overcast,150,2014-02-03 23:53:00
6:53 PM,28.9,25.0,85,30.04,10.0,SE,8.1,-,N/A,,Overcast,140,2014-02-04 00:53:00
7:53 PM,28.9,25.0,85,30.05,10.0,SE,5.8,-,N/A,,Overcast,130,2014-02-04 01:53:00
8:53 PM,28.0,25.0,88,30.06,4.0,ESE,5.8,-,N/A,,Overcast,120,2014-02-04 02:53:00
9:09 PM,28.0,25.0,88,30.00,2.5,ESE,6.9,-,0.00,Rain,Light Freezing Rain,110,2014-02-04 03:09:00
9:34 PM,28.0,25.0,88,30.00,2.0,ESE,5.8,-,0.00,,Overcast,110,2014-02-04 03:34:00
9:42 PM,28.0,25.0,88,30.00,2.0,ESE,8.1,-,0.00,,Overcast,120,2014-02-04 03:42:00
9:53 PM,28.0,26.1,92,30.04,2.0,ESE,5.8,-,0.00,,Overcast,110,2014-02-04 03:53:00
10:15 PM,28.0,26.1,92,30.00,2.5,ESE,5.8,-,N/A,,Overcast,120,2014-02-04 04:15:00
10:31 PM,28.0,26.1,92,29.99,2.0,ESE,5.8,-,0.00,Rain,Light Freezing Rain,110,2014-02-04 04:31:00
10:50 PM,28.4,24.8,86,29.99,2.0,East,6.9,-,0.01,,Overcast,100,2014-02-04 04:50:00
10:53 PM,28.0,25.0,88,30.03,2.0,East,6.9,-,0.01,Rain,Light Freezing Rain,100,2014-02-04 04:53:00
11:00 PM,28.0,25.0,88,29.99,1.8,ESE,6.9,-,0.00,Rain,Light Freezing Rain,110,2014-02-04 05:00:00
11:17 PM,28.0,25.0,88,29.99,2.0,ESE,6.9,-,0.00,Rain,Light Freezing Rain,110,2014-02-04 05:17:00
11:34 PM,28.0,26.1,92,29.98,2.0,ESE,8.1,-,0.00,Rain,Light Freezing Rain,120,2014-02-04 05:34:00
11:53 PM,28.0,26.1,92,30.01,2.5,ESE,9.2,-,0.00,Rain,Light Freezing Rain,120,2014-02-04 05:53:00
11:59 PM,28.0,25.0,88,29.97,3.0,ESE,10.4,-,0.00,,Overcast,120,2014-02-04 05:59:00